Wind_Speed
13 16 19 18 18 17 17 17 16 16 15 15 14 15 14 14 14 15 16 15 13 12 11 10 9 8 7 8 8 9 9 10 10 11 12 12 13 12 12 13 12 12 11 11 10 9 7 7 7 7 6 6 6 6 7 9 11 13 13 13 13 12 13 13 13 12 11 11 11 12 12 14 14 15 16 18 19 18 16 14 13 17 19 19 19
16 18 20 19 18 17 17 17 16 16 15 14 14 14 14 14 13 14 16 15 14 12 11 9 9 8 7 7 8 8 9 10 10 10 11 11 12 12 12 12 12 11 10 10 10 9 7 7 7 7 5 5 5 5 6 9 10 12 13 13 13 12 13 13 13 12 11 11 10 10 11 11 12 14 16 17 18 17 15 12 12 17 19 18 18
18 20 20 20 18 17 17 17 16 16 15 14 14 14 14 13 13 14 15 15 13 12 11 9 8 8 8 7 7 8 8 10 10 10 10 11 11 11 11 10 10 10 9 8 8 8 6 6 6 6 5 4 4 4 5 7 9 11 12 13 13 13 13 14 13 12 12 11 10 9 10 10 9 12 14 16 16 16 14 13 14 17 18 17 18
19 22 21 20 19 17 17 17 16 15 15 15 14 14 13 13 13 13 14 15 13 12 11 9 9 8 8 7 7 7 8 9 10 10 10 10 10 11 10 9 9 8 8 7 6 7 4 3 4 4 4 4 4 5 5 6 8 10 11 12 14 14 14 14 13 13 12 11 8 8 9 9 7 9 12 13 15 14 13 14 17 17 17 17 17
20 22 21 21 19 18 17 17 16 15 15 15 14 14 13 13 13 12 13 13 13 12 11 10 9 8 8 7 7 7 7 8 9 10 10 10 10 10 9 8 8 7 7 6 5 4 2 1 3 4 4 4 4 5 3 5 7 9 11 13 14 14 16 15 14 14 13 14 12 8 8 8 6 6 9 12 13 13 13 15 17 17 17 17 17
22 22 22 22 20 18 17 17 16 15 15 14 14 14 13 13 13 13 12 12 12 12 12 11 9 8 7 7 6 6 7 8 9 10 10 10 9 9 7 6 5 5 4 4 4 1 1 1 2 4 4 4 4 4 3 4 6 8 11 13 14 15 17 17 16 16 16 18 15 12 7 9 6 6 6 9 11 12 14 16 17 16 17 17 16
22 22 22 22 20 19 18 17 16 15 15 15 14 14 14 14 13 13 12 11 11 12 12 11 9 8 7 6 6 7 8 9 10 10 9 9 7 6 5 4 3 3 2 2 2 1 1 0 3 4 4 4 4 4 3 3 5 7 10 13 15 17 19 18 18 19 19 18 15 13 2 12 10 8 5 5 9 12 15 15 16 16 17 17 16
21 21 22 21 19 19 18 17 16 15 15 15 14 14 14 14 14 14 13 12 11 11 12 11 9 8 7 6 7 8 10 10 10 9 8 7 5 4 3 3 2 2 2 1 1 1 1 2 4 4 3 3 3 4 3 2 4 5 9 13 16 18 19 19 20 20 18 17 15 11 4 13 11 10 5 3 7 10 14 15 15 16 16 16 15
21 21 22 21 20 19 19 18 16 16 15 15 15 14 14 15 14 14 13 13 12 11 11 10 9 7 7 8 9 10 10 10 10 8 7 7 6 5 5 4 3 3 3 2 2 1 2 4 5 4 3 3 3 4 3 2 3 4 8 13 16 19 19 18 19 17 17 18 12 7 5 11 9 8 3 2 5 8 14 16 15 15 15 15 14
19 21 21 20 20 19 19 18 16 16 16 16 15 15 15 15 15 15 14 13 12 12 11 10 9 9 10 11 11 11 11 10 9 9 8 8 8 6 6 5 4 3 3 2 2 1 1 2 5 5 4 3 3 4 4 2 2 3 7 11 15 19 18 17 17 16 17 14 6 7 6 11 9 4 4 2 4 8 13 15 14 14 14 14 14
18 19 20 20 20 19 19 18 17 16 16 16 15 16 16 16 16 15 15 14 14 12 12 11 11 12 12 12 12 11 10 9 9 9 9 8 7 5 5 4 4 3 3 3 3 2 2 1 3 4 3 2 2 3 3 2 2 3 6 9 12 17 18 16 17 18 15 6 6 7 9 14 12 8 8 5 4 10 13 13 12 13 13 14 14
19 18 20 20 19 19 19 18 18 17 17 16 16 16 16 17 17 16 16 15 14 13 13 13 13 13 13 12 11 11 9 9 9 9 8 6 5 4 4 3 4 3 3 3 3 3 4 3 1 2 2 2 3 2 2 2 2 2 5 8 11 16 16 14 15 19 12 2 4 5 10 13 13 11 11 6 5 10 12 12 12 12 13 13 13
20 18 20 20 20 19 18 19 18 18 17 17 16 17 16 17 17 17 16 16 15 15 14 14 14 14 13 12 10 9 8 8 8 8 6 4 3 3 3 2 2 2 3 3 3 4 5 5 4 2 2 4 5 4 3 2 2 2 4 7 11 14 14 14 14 17 8 5 6 4 10 11 12 11 11 3 6 10 11 11 12 12 13 13 13
19 19 21 21 20 19 18 19 18 18 17 17 17 16 16 16 17 17 17 16 16 15 15 14 13 13 12 10 9 7 6 6 7 7 5 3 3 3 3 3 2 1 2 2 2 3 5 6 5 4 3 4 5 5 5 5 4 3 4 7 11 14 14 15 15 15 5 7 8 8 13 11 12 10 7 3 7 8 9 10 11 12 12 13 12
19 20 23 21 20 20 19 18 17 17 17 17 17 16 16 16 16 16 16 16 16 15 15 14 12 11 10 8 7 6 6 6 7 6 4 3 3 4 4 3 2 1 1 2 2 3 4 6 5 5 4 4 5 6 7 5 5 5 5 7 12 14 13 13 14 13 3 5 8 12 13 9 8 6 3 6 6 7 8 9 11 11 12 12 12
18 20 22 21 20 21 20 19 17 17 17 17 16 16 16 15 16 15 15 15 15 15 14 14 12 11 9 8 7 7 7 7 7 6 4 4 4 4 4 3 2 2 1 1 1 2 3 4 5 5 5 5 5 6 6 5 5 5 5 6 11 13 12 12 14 12 3 2 5 12 10 9 8 6 3 5 5 6 7 8 10 10 11 11 11
18 19 20 20 20 21 20 19 18 17 17 17 16 15 15 15 15 15 15 14 14 14 14 13 12 11 10 9 8 7 7 7 6 6 5 5 5 5 4 4 3 2 2 2 1 1 2 2 3 4 4 5 5 5 5 4 4 4 4 5 10 13 14 14 14 11 6 3 5 10 9 9 9 7 3 4 4 5 6 7 8 9 10 10 11
18 18 19 19 19 19 19 19 18 18 17 17 16 15 15 14 14 14 14 14 14 13 13 12 12 11 10 9 8 8 7 7 6 6 6 6 6 6 5 5 4 3 3 2 2 1 1 1 2 2 2 3 4 4 4 4 3 2 3 5 9 14 15 15 13 9 6 5 7 10 9 9 10 8 3 2 3 5 6 6 7 8 9 10 10
18 18 17 18 18 18 17 18 18 18 18 17 16 15 14 14 13 14 13 13 13 13 13 12 12 11 10 9 8 8 7 7 7 7 7 7 7 7 6 6 6 5 4 3 2 1 0 1 1 1 1 1 1 2 3 3 3 3 3 4 7 13 14 13 12 6 6 9 10 10 10 10 11 9 3 2 3 4 5 5 6 7 8 9 10
18 19 18 17 17 17 17 18 18 18 18 17 16 15 14 13 13 13 13 13 13 12 12 12 11 10 9 8 7 8 7 7 7 7 7 7 8 7 8 8 7 6 4 3 2 2 2 2 2 3 2 2 1 2 2 3 3 3 4 4 6 10 13 13 12 5 8 10 10 9 10 10 11 9 4 3 3 4 5 5 5 6 7 8 9
19 20 20 18 17 16 17 18 18 17 17 17 16 16 15 14 13 12 12 11 11 12 12 11 11 9 9 9 8 9 8 7 7 8 8 9 9 8 8 9 8 7 5 4 4 3 3 2 3 3 3 3 3 3 3 4 4 5 5 5 6 7 12 14 13 5 10 9 9 10 10 10 10 9 4 4 4 5 5 5 5 6 7 7 8
19 20 20 18 16 16 16 17 18 17 16 15 15 15 15 14 13 12 11 10 11 11 11 10 10 7 9 9 9 9 8 8 8 9 9 10 10 9 9 9 9 8 6 5 4 4 4 4 3 3 4 4 3 4 5 4 4 5 6 6 6 7 11 14 15 8 10 10 9 10 9 9 8 7 5 5 5 5 6 6 5 6 7 7 7
18 20 20 16 14 15 16 16 16 16 14 13 13 13 13 14 13 12 12 12 12 12 11 9 9 7 9 9 9 10 9 9 10 10 10 10 10 10 10 9 9 8 7 6 5 5 6 5 3 4 4 4 4 4 5 4 1 3 6 6 7 7 8 11 15 10 8 12 12 10 8 8 8 7 6 5 6 6 6 6 6 6 6 7 7
18 18 19 16 15 16 16 15 15 14 13 12 12 11 12 13 13 12 11 12 13 13 11 9 9 8 8 9 9 9 10 10 11 11 10 10 10 10 10 10 10 9 8 6 5 6 7 7 5 5 4 5 5 3 4 3 3 4 5 8 7 5 5 8 14 8 7 11 11 12 10 10 8 7 6 5 6 7 7 7 6 6 6 6 6
19 18 18 16 16 17 16 16 15 14 13 12 11 9 10 12 11 10 10 11 12 12 8 6 9 8 7 8 8 8 9 10 10 9 9 9 10 11 11 11 12 11 10 8 7 7 8 8 6 6 5 3 2 2 3 3 7 8 5 8 7 4 6 6 12 8 9 10 9 11 11 10 8 6 6 5 6 7 7 7 7 6 6 5 6
18 18 17 15 15 15 16 17 15 14 13 12 10 8 8 10 8 8 9 9 10 9 6 7 10 9 8 7 8 9 9 9 9 7 7 8 9 9 11 12 13 12 10 9 9 9 8 8 7 6 5 2 0 0 3 6 10 9 6 7 7 7 8 6 9 10 11 10 10 12 9 9 7 6 6 5 5 6 7 7 7 6 6 5 5
17 16 16 15 15 13 13 15 15 14 13 11 8 7 9 8 6 8 9 7 8 9 6 8 10 10 8 8 10 10 9 10 9 7 7 8 8 8 10 11 12 12 11 10 11 10 8 9 8 6 4 4 4 4 7 8 11 12 8 8 8 8 8 6 8 10 12 11 11 11 9 9 7 6 6 5 5 5 6 6 6 6 6 6 5
17 15 15 15 14 12 12 11 12 13 12 10 7 8 9 7 6 8 8 8 9 8 6 8 10 10 9 9 10 10 9 10 8 8 7 8 9 9 9 10 10 12 12 12 11 10 9 10 10 8 6 5 6 6 8 9 9 13 11 8 9 9 7 7 8 10 12 12 11 10 9 9 7 6 5 5 5 5 5 5 6 6 6 6 6
17 16 16 16 13 11 12 10 10 10 9 9 8 8 7 6 7 8 7 8 8 6 6 10 11 11 10 9 10 11 11 11 9 9 9 9 10 10 10 10 10 11 11 11 12 11 11 10 9 9 7 5 5 5 6 8 9 11 13 9 10 11 9 9 10 11 12 12 10 8 8 8 7 6 5 5 5 5 5 5 6 6 5 5 6
17 18 17 17 13 9 11 11 11 10 7 8 10 8 6 5 5 6 6 8 8 7 8 10 11 11 10 10 11 13 14 14 11 10 9 9 10 10 11 11 10 9 8 9 10 11 10 9 9 9 7 6 6 6 6 8 9 10 11 11 10 11 10 10 11 11 12 11 10 7 8 8 6 5 5 4 4 5 5 5 5 5 5 5 5
16 17 16 17 15 9 8 10 12 13 9 7 7 7 7 5 5 6 7 8 7 6 9 9 10 10 9 9 11 14 15 15 12 11 10 9 10 11 11 10 10 9 8 9 9 10 11 10 10 9 9 9 8 7 6 8 10 10 9 9 11 13 10 10 10 10 11 12 10 8 8 7 6 5 4 4 4 4 4 4 4 5 5 5 5
16 15 16 16 15 12 10 8 10 12 11 10 7 6 5 4 3 3 5 6 5 4 6 7 8 7 6 7 9 11 13 14 12 11 11 10 10 11 10 10 10 9 9 10 9 10 12 12 11 9 10 11 9 8 7 6 10 9 8 8 10 15 13 10 11 10 10 13 12 10 9 8 7 6 5 4 4 3 4 4 4 4 4 5 5
16 14 16 17 16 17 15 11 12 13 12 12 10 7 5 3 3 3 2 2 2 3 5 5 6 4 4 5 7 8 10 12 12 12 12 12 12 10 9 10 11 10 8 9 9 9 10 12 13 12 13 13 11 9 8 8 9 8 9 8 10 14 12 8 11 11 10 13 14 11 9 8 8 8 6 5 4 4 4 4 4 4 4 5 5
17 14 16 18 17 17 15 14 16 15 14 14 11 9 8 4 4 2 1 1 1 2 3 3 4 2 2 4 5 6 8 11 12 12 13 13 14 12 10 11 12 10 8 8 8 8 10 11 13 15 15 16 13 11 9 9 10 9 10 6 9 13 10 7 8 9 10 12 14 12 9 7 7 8 7 6 6 5 4 5 5 5 5 5 4
18 15 16 17 16 14 13 14 15 14 14 15 14 13 12 10 9 8 5 3 2 3 2 3 3 2 2 3 4 5 7 9 11 11 11 11 12 12 10 11 12 10 7 8 9 8 9 10 12 15 16 15 14 13 11 9 11 10 9 7 8 12 11 9 9 9 10 12 13 12 10 9 9 8 9 9 8 7 6 5 5 5 5 4 4
18 17 17 16 15 13 12 12 12 11 11 12 11 10 11 11 11 9 7 7 2 1 1 2 2 1 2 4 3 3 4 6 7 9 9 10 10 11 11 11 11 10 9 9 11 10 10 11 13 14 16 14 11 11 10 9 11 9 10 9 8 11 13 12 11 11 11 12 14 12 11 12 12 10 10 9 8 8 7 6 6 6 5 4 4
18 19 17 16 15 14 13 12 10 10 9 9 8 7 8 8 7 7 8 9 6 3 3 3 2 1 2 4 4 3 3 4 5 6 7 8 9 11 11 10 10 10 10 11 12 11 11 12 13 13 15 15 11 9 9 8 9 9 10 11 9 11 14 14 14 13 10 11 13 12 11 14 14 13 12 11 9 8 8 8 8 7 6 5 5
18 18 16 15 16 14 13 12 10 10 8 8 9 8 10 9 7 8 9 9 8 8 6 5 6 3 3 4 5 5 4 5 4 4 4 3 4 5 4 5 8 9 9 11 11 11 11 11 12 12 14 16 13 10 9 11 9 6 8 11 10 10 11 12 13 14 12 11 12 11 11 13 14 14 13 12 10 9 8 9 9 8 7 7 6
18 18 16 15 16 15 14 12 10 9 8 8 9 10 11 10 9 9 9 8 6 8 7 5 6 4 2 2 3 2 1 3 2 3 2 1 3 6 5 3 6 6 6 9 10 10 10 10 10 11 13 14 13 11 10 12 10 7 7 9 9 11 11 11 11 12 12 12 13 12 10 9 11 14 13 12 12 11 10 10 11 10 9 9 8
18 18 17 15 16 16 14 12 10 9 8 9 10 11 11 10 10 9 9 9 6 9 8 5 6 6 5 3 3 4 4 4 3 3 3 2 1 3 6 3 2 3 2 4 8 9 9 9 9 10 11 12 12 13 12 11 10 8 9 8 8 10 10 11 12 11 10 10 12 14 13 9 9 13 13 14 14 13 13 12 12 12 11 11 10
19 19 19 17 16 16 15 13 11 8 8 11 11 10 9 9 9 7 8 7 4 7 10 9 8 8 7 6 5 6 6 5 5 4 0 2 4 3 2 2 1 3 2 1 4 6 7 8 9 10 11 10 10 12 11 12 11 9 9 10 10 10 9 9 11 11 11 9 8 12 15 13 11 12 13 15 16 14 14 14 13 12 12 11 12
21 20 20 19 17 16 15 13 11 9 10 12 12 11 8 7 8 7 8 7 6 7 7 7 5 4 4 4 4 4 3 2 2 4 5 3 4 5 2 1 1 1 2 2 2 3 4 6 7 8 8 7 7 8 10 11 12 10 9 9 9 9 10 9 9 10 12 12 12 11 13 15 14 12 12 13 15 16 15 16 15 13 11 11 11
21 22 20 20 18 17 16 13 11 10 11 12 12 13 11 9 9 9 8 9 10 8 4 3 4 4 4 3 5 8 7 6 8 8 4 3 6 7 4 4 5 4 4 3 4 6 4 2 3 5 6 6 4 5 6 8 10 10 10 9 8 6 7 8 8 9 11 13 15 14 12 14 15 14 12 11 13 16 15 15 16 13 11 11 11
21 22 21 21 19 17 17 14 12 11 11 11 10 10 11 11 11 11 10 7 7 7 3 5 6 6 5 5 8 10 7 7 9 7 4 4 7 6 3 4 6 7 6 5 5 7 9 8 4 2 1 2 2 2 2 3 6 7 7 7 7 6 4 4 4 6 7 9 12 14 14 13 13 14 14 11 13 14 14 15 15 13 12 13 13
23 23 23 22 20 18 17 15 13 12 11 10 8 7 7 8 9 10 10 5 5 7 6 6 7 6 5 7 8 8 8 9 8 6 6 6 8 8 6 2 5 9 9 6 5 5 7 9 9 7 7 4 3 2 1 1 4 6 6 6 4 3 3 4 4 3 4 5 7 10 12 12 12 12 12 13 14 13 12 15 16 13 12 13 13
24 24 24 22 21 19 17 15 13 13 11 9 8 7 7 7 7 9 9 7 8 9 6 6 7 4 4 6 7 6 7 8 6 6 8 7 8 10 9 4 5 8 8 8 6 4 5 5 7 9 9 6 5 5 5 4 2 1 3 5 5 4 5 5 5 3 3 3 4 6 8 9 9 9 9 12 15 13 11 12 13 15 15 14 14
23 25 24 23 21 20 18 16 14 13 12 10 9 9 7 7 9 9 9 10 10 8 6 6 5 4 4 6 6 7 7 7 7 7 7 8 8 10 10 9 10 7 4 5 5 3 4 4 4 7 7 5 7 7 8 9 7 7 6 3 2 2 5 5 5 5 3 3 4 4 5 7 7 7 7 9 12 13 12 11 11 14 17 17 17
22 25 25 23 22 21 19 16 15 15 13 12 11 10 8 8 10 12 11 11 10 9 8 6 5 5 6 7 6 7 7 7 8 8 8 9 11 12 14 13 11 7 5 6 6 5 6 5 5 7 6 5 8 9 7 8 7 8 9 8 8 7 3 1 2 4 4 4 5 3 3 5 6 7 6 6 7 10 12 13 13 15 16 15 15
23 25 26 24 22 21 19 17 16 16 14 14 13 12 10 9 12 14 13 11 10 9 8 6 6 6 7 7 5 6 7 7 8 8 9 11 12 12 13 15 13 9 7 9 11 10 10 11 8 7 6 6 9 8 6 6 6 8 9 8 8 8 6 4 4 3 1 4 5 5 5 5 6 5 6 5 5 6 8 10 13 15 15 14 14
24 23 25 24 23 22 20 19 18 17 15 15 14 13 12 11 13 15 14 13 12 10 8 7 7 6 6 7 5 6 7 7 8 9 9 10 11 11 11 12 12 10 9 10 11 10 10 11 10 10 9 9 8 6 5 6 6 6 7 7 6 5 5 5 5 5 3 2 3 4 6 7 7 8 7 6 6 7 7 7 9 11 12 14 16
23 22 23 24 24 24 23 21 20 18 17 16 16 15 14 12 14 16 15 14 13 12 10 8 8 7 6 6 5 5 5 6 7 8 8 9 9 10 11 10 10 10 10 9 9 9 10 10 9 9 9 9 9 8 7 7 7 5 7 8 7 6 6 5 3 2 1 0 1 2 3 6 8 8 9 10 10 10 11 12 12 11 12 13 15
Wind_Direction
168 164 151 154 154 151 146 134 133 128 124 122 118 120 123 132 141 151 155 157 155 154 155 154 153 141 128 123 122 115 113 117 121 123 119 116 111 106 103 103 100 95 89 84 80 74 70 76 82 79 77 71 79 97 116 134 142 145 146 143 137 136 131 126 123 119 115 108 102 97 93 89 83 77 75 72 68 67 66 60 52 59 64 63 64
157 155 150 152 151 149 142 134 133 127 125 122 120 121 123 131 141 153 157 160 160 159 160 161 158 144 131 126 126 118 118 124 126 129 127 123 115 109 106 104 101 95 89 82 77 72 58 64 79 77 79 75 81 98 119 140 146 148 146 142 141 139 132 124 120 113 107 98 90 82 76 76 77 75 75 75 71 72 75 70 61 61 64 63 63
153 150 149 147 149 147 139 134 132 128 127 124 123 123 123 129 140 153 159 162 164 166 167 165 159 147 137 133 130 124 125 131 133 135 134 127 119 113 111 108 103 100 95 89 83 79 63 56 69 75 81 81 89 96 112 136 145 150 147 145 145 139 128 119 115 108 101 94 90 88 71 55 61 72 76 80 79 76 75 73 66 64 64 64 64
156 148 147 145 148 145 138 136 133 131 128 126 125 123 123 128 139 152 160 164 168 171 171 166 161 153 144 140 135 133 133 136 137 140 138 130 126 121 118 115 110 110 104 97 89 84 78 47 55 66 76 83 92 91 106 130 138 149 147 149 146 134 122 115 112 102 95 86 84 89 63 35 34 61 76 82 83 80 78 77 69 65 66 65 64
155 145 146 144 146 143 139 138 135 133 129 128 126 123 123 127 138 147 157 164 169 173 170 166 164 158 148 145 142 140 139 139 141 143 143 137 134 127 126 123 115 115 109 104 97 92 106 15 50 66 74 94 103 95 113 135 134 143 146 149 140 127 119 113 106 97 89 77 67 55 29 10 17 41 72 82 84 85 81 77 71 67 68 67 66
148 144 145 143 145 142 140 140 137 135 131 130 126 124 123 126 134 140 150 157 164 168 167 166 165 159 152 149 147 142 140 142 144 146 146 144 140 134 135 130 121 117 118 127 124 153 222 358 67 84 85 100 116 112 124 145 142 142 148 147 133 124 119 111 103 95 84 77 69 61 16 327 341 8 49 81 85 83 77 74 71 69 69 68 67
143 143 144 144 143 142 142 142 139 136 132 130 127 123 122 126 131 137 144 149 157 162 163 165 164 159 155 153 148 139 138 141 142 143 142 141 140 138 143 138 129 126 139 153 144 241 271 108 98 98 100 108 126 132 126 144 159 151 153 146 130 127 121 113 106 94 84 82 78 82 354 295 315 340 2 65 77 77 73 72 69 68 69 68 67
141 144 145 146 143 143 145 144 140 136 134 131 128 124 123 126 130 136 140 146 152 157 161 163 161 160 156 151 141 136 136 137 137 136 133 131 130 126 129 123 111 115 110 106 100 346 75 109 105 110 131 134 137 140 133 148 176 167 160 147 135 132 121 113 106 97 92 87 80 92 258 286 303 312 320 62 69 73 75 72 67 66 67 68 67
143 147 148 148 144 145 146 145 141 137 136 134 130 125 125 126 130 134 137 143 148 153 157 159 160 157 150 142 137 138 137 136 135 133 133 129 125 118 115 111 104 100 91 88 63 62 119 111 119 150 175 157 138 138 141 160 184 171 163 152 141 135 124 116 107 99 93 83 84 127 242 280 280 290 304 81 64 62 71 71 65 65 67 68 69
147 151 151 149 146 147 147 145 141 139 139 137 132 128 127 127 128 132 134 137 142 147 151 154 153 147 141 139 140 141 140 138 138 136 136 131 124 119 116 111 107 99 84 72 53 62 122 126 147 168 183 174 143 142 150 171 190 170 164 154 145 140 132 121 110 99 92 91 137 175 232 268 268 300 331 342 59 61 67 71 67 66 69 70 70
149 153 152 151 148 148 148 145 142 142 142 140 135 131 130 128 128 129 131 132 134 138 141 145 142 140 139 140 143 142 143 140 142 142 138 131 122 120 114 108 102 92 77 57 45 55 37 89 173 173 183 177 136 140 156 178 181 176 163 152 150 147 138 128 119 102 89 107 193 199 224 246 262 285 305 310 50 65 71 76 72 70 71 72 71
148 152 152 152 149 149 148 146 145 145 145 143 138 135 133 130 129 129 129 129 130 132 133 136 136 137 140 143 146 144 145 143 147 146 142 133 124 126 120 114 98 80 65 51 42 49 51 60 107 152 166 145 115 111 137 169 152 169 159 153 156 151 139 126 117 98 87 144 163 197 220 232 250 270 291 302 53 69 81 81 76 75 74 75 73
150 150 151 153 149 151 149 148 148 148 148 145 142 139 137 134 132 131 130 130 129 129 129 131 131 134 139 144 147 146 146 149 153 150 148 141 134 144 141 138 108 85 63 51 42 47 61 63 62 82 123 124 115 109 110 114 117 140 147 154 155 152 140 122 108 94 107 162 111 234 244 250 256 275 295 310 68 76 88 82 79 79 78 77 75
151 148 151 154 151 152 151 150 150 150 151 147 146 143 141 138 135 135 133 133 130 130 129 130 132 134 138 143 146 148 151 157 162 160 157 152 154 165 160 160 140 109 79 63 53 54 67 67 60 63 88 113 118 122 119 113 115 121 132 150 154 152 140 126 112 99 155 168 123 234 245 256 261 273 298 51 78 87 89 82 81 82 82 80 78
150 149 152 154 151 153 152 152 152 154 154 149 149 148 146 142 139 138 135 135 134 135 134 134 136 138 143 147 151 156 164 169 173 175 171 166 169 171 173 177 175 153 112 78 59 59 70 74 68 65 75 95 115 126 123 121 118 112 123 146 155 153 141 133 117 106 195 171 152 229 239 254 265 276 336 68 80 94 91 86 86 86 88 84 82
151 150 152 155 154 155 154 153 156 157 156 153 153 152 150 147 145 142 140 140 140 141 141 141 143 144 148 151 157 164 175 180 183 188 182 177 179 179 190 200 197 188 158 123 74 62 61 72 77 75 76 85 110 127 128 129 119 109 119 144 154 151 141 132 116 113 160 133 189 237 243 263 282 305 8 74 83 95 97 92 90 91 93 90 88
148 151 154 156 156 156 155 156 158 160 159 157 157 156 155 153 151 149 148 148 147 148 148 150 149 148 153 157 163 171 179 185 189 194 191 186 192 194 202 213 212 204 189 174 132 85 53 62 78 86 79 84 101 119 134 135 132 125 122 136 147 148 138 127 113 118 140 125 222 244 250 266 283 305 352 88 93 102 105 94 93 96 98 96 92
145 151 155 154 156 158 157 157 159 162 163 162 161 161 161 160 157 156 155 155 155 156 157 159 157 154 157 162 168 177 182 187 196 198 197 197 202 203 206 214 216 214 207 191 163 122 64 30 57 97 87 86 97 108 129 139 152 155 146 141 143 149 141 127 115 121 161 183 220 247 258 268 279 295 318 111 112 117 115 102 98 98 102 100 95
145 147 150 150 155 158 159 159 163 166 167 166 167 168 167 167 165 163 162 162 164 164 165 166 162 160 163 168 175 184 188 190 201 206 206 210 211 211 210 213 214 215 217 213 192 163 206 308 328 314 338 62 106 121 133 147 163 178 178 156 149 156 148 131 117 121 212 209 214 247 261 266 276 286 282 175 133 134 129 111 106 104 108 104 100
146 146 147 148 154 156 159 164 168 169 170 172 172 174 173 172 171 169 169 169 172 172 172 171 164 166 173 180 189 193 199 203 210 216 218 221 219 220 217 214 215 216 221 227 223 205 236 278 296 301 295 282 259 209 179 165 169 183 192 172 164 165 156 137 116 135 233 222 223 252 263 266 272 276 258 190 156 151 145 126 122 119 118 112 109
147 148 149 151 155 155 159 165 169 172 175 176 177 179 178 176 177 176 175 175 179 180 180 175 166 175 190 194 204 204 210 219 223 222 226 228 226 231 226 221 219 217 218 224 235 229 237 258 272 288 288 282 260 240 221 197 188 180 190 180 174 171 163 146 117 149 246 244 246 263 270 269 269 266 243 191 175 168 162 148 140 133 131 124 118
148 146 148 153 157 157 159 162 166 173 177 178 181 183 183 181 181 180 180 184 189 189 185 177 168 192 216 211 215 221 226 230 231 227 228 232 231 235 232 230 227 222 221 223 241 241 238 245 266 287 285 282 258 241 228 205 199 189 193 187 178 180 175 160 130 147 245 251 258 270 270 267 266 259 237 202 186 178 175 165 156 146 140 135 128
148 143 147 153 159 158 159 162 165 169 171 177 183 183 185 185 186 188 192 197 201 197 185 178 181 210 233 228 228 237 242 238 239 232 225 231 234 236 235 235 234 230 231 231 243 246 246 245 258 277 280 283 265 244 217 186 194 214 204 193 183 188 188 177 149 144 236 247 259 270 271 274 271 262 244 215 193 185 181 173 170 159 149 144 139
149 146 149 155 163 164 162 164 167 168 165 171 179 178 183 191 193 198 204 208 211 206 189 186 201 211 225 234 240 243 245 240 239 235 224 225 228 232 234 237 236 234 236 239 244 242 245 247 249 259 271 278 252 205 173 173 269 281 232 202 184 192 217 192 162 153 246 245 253 264 274 279 269 266 257 224 201 191 186 182 181 176 166 154 147
155 151 149 152 158 164 161 163 167 168 166 165 172 175 184 191 193 203 210 216 221 218 202 200 216 210 206 228 240 237 243 241 233 232 228 223 220 225 231 234 234 232 238 243 243 237 238 248 252 250 255 269 246 138 130 188 247 271 261 205 177 195 240 205 167 180 251 244 246 258 268 272 261 264 259 234 212 198 193 193 189 188 183 171 160
159 153 150 151 153 158 156 162 165 165 166 163 167 178 189 187 189 207 210 214 227 234 227 215 226 223 212 226 237 236 240 234 222 226 232 230 220 218 229 231 228 230 239 241 239 235 234 243 247 247 244 208 131 250 215 207 210 232 264 224 188 202 223 209 179 195 236 242 247 256 264 266 258 257 254 238 221 202 198 201 197 196 194 191 180
157 151 150 149 149 155 153 160 162 161 167 162 167 182 192 193 198 217 214 213 222 233 236 223 230 231 220 223 236 245 238 220 215 227 234 238 235 227 231 229 227 231 237 239 237 235 233 239 240 239 235 192 189 233 247 227 193 196 239 245 212 213 219 209 202 205 222 236 244 254 258 256 255 255 255 245 228 207 198 204 204 203 201 200 194
155 150 145 145 150 154 148 156 157 156 167 166 178 189 192 200 206 219 222 225 220 215 215 216 226 226 222 224 233 244 234 220 225 237 230 228 237 236 232 226 223 228 235 242 244 241 234 237 241 241 236 201 190 208 235 246 216 192 207 236 216 209 219 214 222 226 226 235 241 249 249 245 251 252 255 255 244 225 205 203 207 206 205 200 196
152 146 142 147 155 153 145 154 153 152 168 167 174 192 213 223 218 225 226 234 231 219 216 221 227 223 221 226 232 236 230 231 240 241 232 224 230 231 228 224 217 221 233 242 245 248 240 237 244 246 242 217 210 218 220 242 250 214 194 211 226 211 206 210 225 231 228 236 241 245 244 237 246 253 255 260 257 247 224 206 206 207 204 199 196
148 142 141 145 147 152 149 151 151 152 171 172 169 182 209 214 217 229 229 244 244 237 240 232 226 223 221 225 229 231 229 234 240 238 235 231 233 234 230 229 224 224 238 243 245 253 246 240 245 244 244 236 231 232 228 232 246 239 202 198 234 233 209 207 225 233 227 233 240 238 239 236 237 247 252 257 257 256 248 223 208 204 202 198 195
144 138 138 141 141 146 152 154 153 151 160 170 167 172 183 190 215 236 238 250 247 238 247 234 222 227 230 229 226 229 229 231 236 237 233 230 233 235 230 234 240 235 235 238 243 253 249 245 238 230 238 241 233 221 225 233 229 238 232 213 235 245 229 209 221 237 232 231 237 235 236 238 233 238 243 248 256 258 261 250 225 214 209 203 197
138 135 136 137 136 140 142 144 143 135 137 140 129 134 149 161 179 209 224 239 250 239 236 228 225 233 235 236 235 237 236 232 237 243 239 235 232 231 229 234 242 238 235 239 244 253 256 254 241 231 238 240 239 220 207 225 221 217 238 241 237 244 248 227 213 224 237 238 242 242 243 242 230 231 239 244 253 259 266 264 245 235 222 214 207
134 143 147 139 137 147 145 125 116 115 120 121 107 102 108 99 104 118 179 192 249 224 208 213 215 221 217 231 245 247 241 235 244 250 248 247 241 240 244 240 235 231 235 249 261 262 256 250 240 240 243 241 240 226 208 215 225 210 212 236 237 238 248 237 215 211 225 239 244 246 243 240 235 234 241 248 257 261 261 261 252 250 241 231 219
142 153 155 149 150 157 148 126 120 127 137 130 121 130 128 100 93 127 160 100 294 223 186 219 211 209 220 225 235 240 238 234 240 243 244 248 246 246 248 244 239 234 238 253 265 259 250 249 241 239 242 243 239 229 220 219 243 236 208 235 251 232 230 233 231 219 214 227 244 253 248 243 249 249 257 263 264 266 260 254 247 246 248 244 232
150 154 155 159 162 161 150 138 138 143 152 146 148 158 146 139 156 178 172 134 253 251 218 254 249 250 257 251 228 223 237 235 234 234 236 246 250 250 244 242 244 243 244 250 252 244 244 253 246 241 240 244 241 231 230 235 257 252 211 234 257 231 225 228 232 227 221 223 235 253 261 264 265 262 270 269 262 262 259 251 239 233 240 246 245
155 154 156 164 165 161 156 152 156 155 156 156 163 168 156 161 172 178 161 135 148 283 336 298 274 273 258 263 243 219 247 245 239 237 238 246 249 248 242 241 244 239 232 233 239 238 239 243 241 242 240 244 247 230 230 246 264 255 216 224 237 223 220 223 223 220 224 229 231 243 252 258 263 265 272 273 264 255 250 247 240 229 227 235 242
157 155 157 162 160 157 157 156 158 151 147 149 152 152 147 152 151 145 137 131 133 117 59 66 104 182 221 238 227 207 235 237 241 243 237 241 241 240 238 238 241 235 226 225 231 235 236 234 234 239 235 235 240 224 216 230 254 253 228 232 239 226 217 217 220 218 218 219 224 236 237 240 252 260 265 268 263 252 247 245 239 232 229 233 240
157 156 158 157 155 155 154 150 144 135 130 129 129 129 125 120 123 126 125 134 146 141 136 150 152 174 211 217 205 193 219 219 224 245 240 257 265 263 257 237 238 237 228 227 233 233 232 233 235 238 234 230 233 231 219 219 236 251 241 244 246 239 231 224 221 221 221 210 208 219 223 229 243 251 258 266 263 251 247 242 234 231 232 236 242
157 158 157 155 156 155 151 145 136 125 122 120 116 112 113 113 108 100 101 113 126 127 137 162 152 144 147 203 195 151 252 233 218 266 255 25 339 339 347 282 244 250 236 230 236 236 235 239 241 244 241 235 234 236 232 224 229 237 242 248 236 229 239 242 233 223 222 221 220 221 216 218 234 240 246 260 264 257 253 248 239 237 239 243 246
160 160 154 158 162 157 154 148 137 129 123 112 100 98 103 103 104 106 115 122 125 127 127 132 145 151 149 171 180 154 203 203 163 253 245 159 141 358 344 326 309 300 272 231 239 242 246 251 245 245 244 240 237 238 239 234 231 229 235 250 243 233 236 243 247 237 224 227 233 234 224 210 219 231 239 250 257 258 256 251 248 249 249 246 245
164 162 154 161 168 163 160 153 145 137 123 111 104 109 114 111 118 125 125 125 122 133 141 151 167 179 176 188 196 185 208 207 187 204 193 81 145 144 306 317 32 332 325 296 258 249 250 257 254 251 246 241 240 239 241 238 236 235 240 251 252 247 243 244 252 245 238 241 244 240 230 218 216 222 233 245 249 251 254 255 256 255 253 249 244
168 165 161 165 170 170 167 160 153 142 125 125 127 130 130 122 121 114 115 122 116 128 154 165 173 181 169 185 181 139 86 52 98 115 86 68 117 111 18 2 125 338 4 12 322 290 254 253 252 249 245 244 245 243 241 237 236 239 244 254 257 252 249 252 259 253 249 252 251 243 230 226 226 220 224 236 240 242 248 257 262 259 254 252 246
172 167 166 168 170 175 175 165 158 150 139 141 144 145 149 143 133 132 141 148 151 162 172 129 112 97 97 102 112 98 79 67 63 73 90 105 103 95 73 76 88 76 51 33 25 31 21 321 253 244 249 246 246 241 238 239 240 242 244 251 261 264 262 257 256 255 256 253 247 244 236 233 232 231 231 227 229 232 234 245 255 257 256 257 256
179 172 170 171 172 179 180 170 164 161 155 155 153 156 162 159 158 160 161 167 174 176 139 102 97 82 83 91 103 98 92 92 81 86 111 109 105 101 107 108 100 98 77 34 27 41 39 35 49 51 310 226 211 229 235 234 230 234 240 241 247 261 273 260 238 245 258 256 248 244 239 239 237 239 243 234 226 229 228 234 241 245 254 260 257
188 179 176 175 173 181 185 174 171 169 166 166 156 153 161 165 174 172 169 170 138 123 103 90 83 77 78 79 92 95 93 96 96 111 111 115 133 113 90 117 141 128 112 89 68 59 53 51 58 54 37 56 98 85 80 190 217 221 225 222 220 230 231 228 218 232 271 259 253 248 237 236 239 242 250 242 233 234 234 233 232 230 241 248 244
197 186 182 178 175 184 187 177 177 177 174 173 157 154 163 165 166 161 159 142 113 115 116 99 97 105 91 79 91 96 97 104 111 121 109 114 142 130 112 100 114 128 130 130 125 111 112 97 78 66 48 49 72 68 70 75 81 178 211 232 235 233 230 227 221 231 299 272 249 250 227 216 226 237 250 243 235 239 239 234 231 224 224 231 232
203 193 187 182 178 186 188 182 183 183 181 176 163 165 170 161 153 143 137 127 123 140 149 132 132 131 97 84 88 88 86 89 86 85 91 102 118 126 118 83 70 84 100 132 145 138 142 154 141 117 97 82 82 66 59 65 63 71 72 46 357 279 252 241 237 233 261 281 245 238 221 205 213 228 242 244 239 243 242 237 239 230 224 228 233
207 197 194 187 183 189 191 186 188 189 187 179 170 173 175 163 152 142 135 138 151 167 165 150 140 122 101 88 79 79 77 76 79 75 75 89 99 108 111 98 85 76 66 85 96 88 94 109 141 147 142 132 115 100 85 82 75 74 70 52 43 33 14 275 275 244 231 268 268 262 253 221 216 219 225 235 242 250 248 241 241 242 236 233 235
210 201 201 194 188 193 193 188 192 194 189 182 175 176 177 167 158 148 146 160 174 172 165 154 134 120 108 103 93 82 80 78 82 82 77 81 90 100 111 115 113 102 85 84 83 80 81 86 96 110 113 125 137 139 134 127 117 100 83 59 42 35 34 51 44 32 252 273 288 307 312 277 251 243 225 217 228 250 260 251 247 251 250 245 242
209 205 207 201 195 198 195 190 196 198 191 184 180 180 179 173 163 153 156 176 179 164 164 162 142 132 120 114 108 85 83 83 80 82 80 79 85 92 100 111 115 104 87 82 81 83 82 83 85 85 88 96 110 123 123 127 135 139 132 110 90 75 58 58 62 55 39 356 343 336 328 319 312 306 284 256 244 245 254 256 253 254 252 248 247
204 206 210 205 200 203 200 193 198 203 195 185 183 184 182 178 167 157 168 186 175 164 176 171 152 149 133 118 115 97 88 87 88 89 88 85 86 90 93 98 102 99 92 83 75 76 79 79 80 81 84 85 87 92 94 102 111 131 156 138 117 116 110 106 126 133 127 292 301 298 324 332 330 326 310 289 275 268 263 259 257 257 257 256 255
Height
1484 1486 1488 1490 1492 1493 1495 1496 1498 1499 1500 1502 1503 1505 1505 1507 1508 1509 1510 1511 1512 1514 1514 1515 1517 1517 1519 1520 1521 1522 1523 1524 1525 1526 1526 1527 1527 1528 1528 1529 1529 1530 1530 1530 1531 1531 1531 1531 1532 1533 1533 1533 1533 1534 1534 1534 1535 1535 1535 1536 1537 1538 1538 1539 1540 1541 1541 1542 1542 1542 1541 1541 1541 1541 1541 1541 1541 1542 1542 1542 1542 1542 1541 1541 1540
1482 1485 1488 1490 1492 1493 1495 1496 1498 1499 1501 1502 1503 1505 1506 1507 1508 1509 1510 1512 1513 1514 1515 1516 1517 1518 1519 1520 1522 1523 1524 1525 1526 1526 1527 1527 1528 1528 1529 1530 1530 1531 1531 1531 1532 1532 1532 1532 1533 1533 1533 1534 1534 1534 1534 1535 1535 1536 1536 1537 1538 1539 1540 1541 1542 1542 1542 1542 1543 1543 1542 1542 1541 1541 1542 1542 1542 1543 1543 1544 1544 1543 1542 1542 1542
1482 1485 1487 1490 1492 1494 1495 1496 1498 1499 1501 1502 1504 1505 1506 1507 1508 1510 1510 1512 1513 1514 1515 1516 1517 1518 1520 1521 1522 1523 1524 1525 1526 1527 1528 1528 1529 1529 1530 1531 1531 1532 1532 1532 1532 1533 1533 1533 1533 1533 1534 1534 1534 1535 1535 1536 1536 1537 1537 1538 1538 1540 1541 1542 1542 1543 1543 1543 1543 1543 1543 1543 1543 1542 1542 1543 1543 1544 1544 1545 1544 1544 1543 1543 1543
1483 1485 1488 1490 1492 1494 1495 1497 1498 1499 1501 1502 1504 1505 1506 1507 1508 1509 1510 1512 1513 1514 1515 1516 1518 1519 1520 1521 1523 1524 1525 1526 1527 1528 1528 1529 1530 1530 1531 1532 1532 1532 1533 1533 1533 1534 1534 1533 1534 1534 1534 1534 1535 1535 1536 1536 1537 1538 1538 1538 1539 1541 1542 1542 1543 1543 1544 1544 1543 1543 1543 1544 1544 1543 1543 1544 1544 1545 1545 1546 1545 1545 1544 1544 1544
1483 1485 1488 1490 1492 1495 1496 1497 1498 1500 1501 1502 1504 1505 1506 1507 1509 1510 1510 1512 1513 1514 1516 1517 1518 1519 1521 1522 1523 1524 1526 1527 1528 1529 1529 1530 1530 1531 1532 1532 1533 1533 1533 1534 1534 1534 1534 1534 1534 1534 1534 1535 1535 1536 1536 1537 1538 1538 1539 1539 1540 1542 1542 1543 1544 1544 1545 1545 1545 1544 1543 1544 1545 1545 1544 1544 1545 1546 1546 1546 1546 1546 1546 1546 1546
1484 1485 1488 1490 1493 1495 1496 1498 1499 1500 1501 1503 1504 1505 1507 1508 1509 1510 1511 1512 1513 1515 1516 1517 1518 1520 1521 1522 1524 1525 1527 1527 1528 1529 1530 1531 1531 1532 1532 1533 1533 1534 1534 1534 1535 1534 1534 1534 1535 1535 1535 1535 1536 1536 1537 1537 1538 1539 1539 1540 1541 1543 1543 1544 1545 1545 1546 1547 1547 1546 1545 1545 1545 1546 1545 1545 1546 1547 1547 1547 1547 1547 1547 1547 1547
1484 1487 1489 1490 1493 1495 1497 1498 1499 1501 1502 1503 1504 1506 1507 1508 1509 1510 1511 1512 1514 1515 1516 1518 1519 1520 1521 1523 1524 1526 1527 1528 1529 1530 1531 1531 1532 1532 1533 1533 1534 1534 1534 1534 1535 1535 1535 1535 1535 1535 1535 1535 1536 1537 1537 1538 1539 1539 1540 1541 1542 1543 1544 1545 1545 1547 1547 1548 1549 1549 1548 1546 1546 1547 1546 1546 1547 1547 1547 1547 1547 1548 1548 1548 1548
1486 1488 1490 1491 1493 1495 1497 1498 1500 1501 1502 1504 1505 1506 1507 1509 1509 1510 1511 1512 1514 1515 1517 1518 1520 1521 1522 1524 1525 1527 1528 1529 1530 1531 1532 1532 1533 1533 1533 1534 1534 1534 1534 1535 1535 1535 1535 1535 1535 1536 1535 1536 1536 1537 1538 1538 1539 1540 1541 1541 1542 1543 1544 1546 1547 1548 1548 1550 1550 1550 1549 1548 1547 1547 1547 1547 1547 1548 1548 1548 1548 1549 1549 1549 1549
1488 1489 1490 1492 1493 1495 1497 1499 1500 1502 1503 1504 1506 1507 1508 1509 1510 1511 1512 1513 1515 1516 1518 1519 1520 1522 1523 1524 1526 1527 1528 1530 1531 1532 1532 1533 1533 1533 1534 1534 1534 1535 1535 1535 1535 1536 1535 1535 1536 1536 1536 1536 1536 1537 1538 1538 1539 1540 1541 1542 1543 1544 1545 1546 1547 1548 1549 1551 1552 1552 1550 1548 1547 1547 1548 1547 1548 1548 1549 1550 1550 1550 1550 1550 1550
1489 1489 1491 1492 1494 1496 1497 1499 1501 1502 1504 1505 1506 1507 1509 1510 1511 1512 1513 1514 1515 1517 1518 1519 1521 1522 1524 1525 1526 1528 1529 1530 1531 1532 1533 1533 1534 1534 1535 1535 1535 1535 1535 1536 1535 1536 1535 1535 1536 1536 1536 1536 1537 1537 1538 1539 1539 1540 1542 1543 1544 1544 1545 1546 1547 1548 1549 1551 1552 1553 1550 1547 1547 1547 1548 1548 1548 1549 1550 1550 1551 1551 1551 1551 1551
1489 1490 1491 1492 1494 1496 1498 1500 1501 1503 1504 1506 1507 1508 1509 1510 1511 1513 1514 1515 1516 1518 1519 1520 1522 1523 1525 1526 1527 1529 1530 1531 1532 1533 1533 1534 1534 1534 1535 1535 1535 1535 1535 1536 1536 1536 1535 1535 1535 1536 1536 1537 1537 1538 1538 1539 1540 1541 1542 1544 1544 1545 1545 1546 1547 1548 1549 1552 1553 1552 1551 1548 1548 1549 1549 1550 1550 1550 1551 1551 1552 1552 1552 1552 1552
1489 1490 1492 1493 1495 1496 1498 1500 1501 1503 1505 1506 1508 1509 1510 1511 1512 1513 1515 1516 1517 1519 1520 1521 1523 1524 1526 1527 1528 1529 1530 1531 1532 1533 1534 1534 1534 1535 1535 1536 1536 1536 1536 1536 1536 1536 1536 1536 1536 1536 1536 1537 1537 1538 1539 1539 1540 1541 1542 1544 1545 1545 1546 1547 1548 1548 1550 1553 1553 1550 1549 1549 1549 1550 1550 1551 1551 1551 1552 1552 1553 1552 1552 1552 1553
1488 1490 1492 1494 1495 1497 1499 1500 1501 1503 1505 1507 1508 1510 1511 1512 1513 1514 1515 1516 1518 1519 1521 1522 1524 1525 1527 1528 1529 1530 1531 1532 1533 1533 1534 1534 1535 1535 1535 1536 1536 1536 1536 1536 1536 1536 1536 1536 1536 1536 1537 1537 1538 1538 1539 1539 1540 1541 1542 1544 1545 1546 1547 1548 1548 1549 1551 1553 1553 1550 1548 1550 1551 1551 1552 1552 1551 1552 1553 1553 1553 1553 1553 1553 1553
1489 1490 1492 1494 1496 1498 1499 1500 1502 1504 1506 1507 1509 1510 1512 1513 1514 1515 1516 1517 1518 1520 1521 1523 1524 1526 1528 1529 1530 1530 1531 1532 1533 1534 1534 1534 1535 1535 1536 1536 1536 1536 1536 1537 1537 1536 1536 1536 1536 1537 1537 1538 1538 1539 1539 1540 1540 1541 1542 1544 1545 1546 1547 1548 1547 1549 1551 1553 1553 1550 1548 1550 1551 1552 1552 1552 1552 1552 1553 1553 1553 1553 1553 1553 1554
1489 1490 1492 1494 1496 1498 1499 1501 1502 1505 1506 1508 1510 1511 1512 1514 1515 1515 1517 1518 1519 1520 1522 1523 1525 1527 1529 1530 1530 1531 1532 1532 1533 1534 1534 1535 1535 1535 1536 1536 1536 1536 1537 1537 1537 1537 1537 1537 1537 1537 1537 1538 1539 1539 1539 1540 1541 1541 1543 1544 1545 1547 1548 1548 1547 1549 1551 1553 1553 1550 1549 1551 1551 1552 1552 1552 1552 1552 1553 1553 1554 1554 1554 1554 1554
1489 1490 1492 1493 1495 1497 1499 1501 1503 1505 1507 1509 1510 1512 1513 1514 1516 1517 1518 1519 1520 1521 1522 1524 1526 1528 1529 1530 1531 1532 1532 1533 1534 1534 1534 1535 1535 1536 1536 1536 1536 1536 1537 1537 1537 1537 1537 1537 1537 1537 1538 1538 1539 1540 1540 1541 1541 1542 1543 1544 1545 1547 1548 1548 1548 1550 1551 1552 1552 1549 1550 1551 1551 1551 1552 1552 1552 1553 1553 1553 1554 1554 1554 1554 1554
1489 1490 1491 1493 1495 1497 1499 1502 1504 1506 1508 1510 1511 1512 1514 1515 1516 1517 1518 1520 1521 1522 1523 1525 1526 1528 1529 1530 1531 1532 1532 1533 1534 1534 1534 1535 1535 1535 1536 1536 1536 1537 1537 1537 1537 1537 1537 1537 1538 1538 1538 1539 1539 1540 1541 1541 1542 1543 1544 1545 1546 1547 1548 1549 1550 1550 1552 1552 1550 1549 1550 1551 1550 1551 1552 1552 1552 1553 1553 1554 1554 1554 1554 1555 1555
1489 1490 1492 1493 1496 1498 1500 1502 1505 1507 1508 1510 1512 1513 1514 1515 1516 1517 1519 1520 1521 1523 1524 1525 1526 1528 1529 1530 1531 1531 1532 1533 1533 1534 1534 1535 1535 1536 1536 1536 1536 1537 1537 1537 1537 1538 1538 1538 1538 1539 1539 1539 1540 1540 1541 1541 1542 1543 1544 1545 1546 1547 1548 1549 1550 1551 1552 1551 1550 1550 1550 1551 1551 1551 1552 1552 1552 1553 1553 1554 1554 1555 1555 1555 1555
1490 1491 1493 1495 1497 1499 1501 1503 1505 1507 1509 1510 1511 1513 1514 1515 1516 1518 1519 1521 1522 1523 1524 1525 1527 1528 1529 1530 1530 1531 1532 1532 1533 1533 1534 1535 1535 1536 1536 1536 1536 1536 1537 1537 1538 1538 1538 1538 1539 1539 1539 1540 1540 1541 1541 1542 1542 1543 1544 1545 1546 1547 1548 1549 1550 1551 1552 1550 1550 1550 1550 1551 1551 1551 1552 1553 1553 1553 1553 1554 1554 1555 1555 1555 1555
1490 1492 1494 1496 1498 1500 1501 1503 1505 1506 1508 1509 1511 1513 1515 1516 1517 1518 1519 1521 1523 1524 1525 1526 1528 1529 1530 1530 1530 1531 1531 1531 1532 1533 1534 1534 1535 1535 1536 1536 1536 1537 1537 1537 1538 1538 1539 1539 1539 1539 1539 1540 1540 1541 1541 1542 1542 1543 1544 1544 1546 1547 1548 1549 1549 1551 1550 1549 1551 1550 1551 1551 1550 1551 1552 1552 1553 1553 1553 1554 1554 1555 1555 1555 1556
1490 1493 1496 1498 1499 1501 1502 1503 1505 1507 1508 1509 1511 1513 1514 1516 1518 1519 1521 1522 1523 1524 1525 1527 1530 1530 1529 1530 1530 1530 1531 1531 1531 1532 1533 1534 1534 1535 1536 1536 1536 1537 1537 1537 1538 1538 1539 1539 1539 1539 1539 1540 1540 1540 1541 1541 1542 1543 1544 1544 1545 1546 1548 1548 1549 1551 1549 1549 1551 1550 1551 1550 1550 1551 1552 1552 1553 1553 1554 1554 1555 1555 1555 1555 1556
1490 1493 1497 1498 1499 1501 1502 1504 1505 1507 1509 1510 1512 1513 1515 1517 1519 1520 1522 1523 1523 1524 1525 1528 1531 1530 1528 1529 1529 1529 1530 1531 1531 1532 1533 1533 1534 1534 1535 1536 1536 1537 1537 1537 1538 1538 1539 1539 1539 1539 1539 1539 1539 1540 1540 1541 1542 1543 1544 1544 1545 1546 1547 1548 1548 1550 1549 1549 1550 1550 1550 1550 1550 1550 1551 1552 1552 1553 1554 1554 1555 1555 1556 1556 1556
1491 1493 1496 1497 1499 1500 1502 1504 1505 1507 1509 1511 1512 1514 1516 1517 1519 1520 1521 1522 1523 1523 1525 1529 1531 1529 1528 1529 1529 1529 1529 1530 1531 1532 1532 1533 1533 1534 1534 1535 1536 1536 1537 1537 1538 1538 1539 1539 1539 1538 1538 1539 1539 1539 1540 1541 1542 1543 1544 1544 1545 1545 1547 1547 1548 1549 1548 1548 1549 1549 1550 1550 1550 1550 1551 1552 1552 1553 1554 1554 1555 1555 1556 1556 1556
1493 1494 1495 1497 1499 1500 1502 1504 1506 1508 1510 1511 1513 1514 1516 1517 1518 1519 1520 1522 1522 1523 1526 1529 1529 1528 1528 1528 1528 1528 1529 1529 1530 1531 1532 1533 1533 1533 1534 1534 1535 1535 1536 1537 1538 1538 1538 1538 1538 1538 1538 1538 1538 1539 1539 1540 1541 1543 1544 1544 1545 1545 1546 1547 1549 1549 1548 1548 1549 1549 1550 1550 1550 1550 1550 1551 1552 1553 1553 1554 1555 1555 1556 1556 1557
1494 1494 1496 1497 1500 1501 1503 1505 1506 1508 1510 1512 1513 1514 1516 1517 1518 1519 1520 1522 1523 1524 1528 1529 1527 1527 1528 1527 1527 1528 1529 1529 1530 1531 1531 1532 1532 1533 1533 1533 1533 1533 1535 1536 1537 1537 1537 1538 1538 1538 1538 1538 1538 1538 1539 1540 1541 1543 1544 1544 1545 1546 1547 1548 1548 1548 1547 1548 1549 1549 1549 1549 1549 1550 1550 1551 1552 1553 1553 1554 1554 1555 1556 1556 1557
1494 1494 1496 1498 1500 1502 1504 1506 1507 1508 1510 1512 1513 1514 1515 1516 1518 1519 1520 1523 1523 1526 1528 1527 1525 1526 1527 1526 1527 1528 1529 1529 1530 1530 1531 1531 1532 1533 1532 1532 1532 1532 1533 1535 1536 1537 1538 1538 1538 1538 1538 1538 1538 1539 1540 1541 1542 1542 1543 1544 1545 1546 1547 1547 1548 1548 1547 1548 1548 1548 1549 1549 1549 1550 1550 1551 1552 1552 1553 1554 1554 1555 1555 1556 1557
1495 1494 1496 1498 1500 1502 1504 1506 1507 1509 1510 1512 1514 1514 1515 1516 1518 1519 1519 1521 1523 1525 1526 1525 1524 1525 1526 1527 1527 1528 1529 1529 1530 1530 1531 1531 1532 1532 1532 1532 1532 1532 1533 1535 1536 1537 1538 1538 1538 1538 1539 1539 1539 1540 1541 1541 1541 1543 1543 1544 1545 1546 1547 1547 1548 1548 1547 1547 1548 1548 1549 1549 1549 1549 1550 1551 1551 1552 1553 1553 1554 1555 1555 1556 1556
1495 1494 1495 1498 1500 1502 1504 1506 1507 1509 1510 1512 1514 1514 1515 1515 1516 1517 1517 1519 1521 1524 1524 1523 1523 1524 1526 1527 1528 1528 1528 1529 1529 1529 1530 1531 1531 1531 1531 1531 1532 1532 1534 1535 1536 1538 1539 1539 1539 1539 1539 1539 1539 1541 1542 1542 1542 1542 1543 1544 1545 1546 1547 1548 1548 1548 1547 1547 1548 1548 1548 1549 1549 1549 1550 1550 1551 1552 1553 1553 1554 1554 1555 1555 1556
1494 1494 1496 1498 1499 1502 1504 1506 1507 1509 1510 1512 1513 1513 1513 1514 1514 1515 1516 1518 1519 1522 1523 1523 1523 1524 1526 1527 1527 1528 1528 1528 1528 1528 1528 1529 1530 1530 1531 1532 1532 1533 1535 1536 1537 1538 1538 1539 1539 1539 1540 1540 1540 1540 1542 1542 1542 1543 1543 1543 1544 1545 1547 1547 1548 1548 1547 1547 1548 1548 1548 1549 1549 1549 1550 1550 1551 1552 1552 1553 1553 1554 1554 1555 1555
1494 1495 1497 1499 1499 1501 1503 1505 1507 1508 1508 1509 1512 1513 1513 1514 1514 1515 1517 1517 1519 1521 1522 1522 1522 1523 1525 1526 1526 1527 1527 1528 1527 1527 1527 1528 1529 1530 1530 1531 1532 1533 1535 1536 1537 1537 1538 1539 1540 1540 1540 1540 1539 1540 1542 1543 1543 1543 1543 1543 1544 1545 1546 1547 1548 1548 1547 1547 1547 1548 1548 1548 1549 1549 1549 1550 1551 1552 1552 1553 1553 1554 1554 1555 1555
1494 1495 1497 1499 1500 1501 1501 1504 1507 1508 1509 1509 1511 1513 1514 1515 1516 1516 1517 1517 1518 1520 1520 1520 1522 1522 1523 1525 1525 1525 1526 1526 1526 1527 1527 1528 1529 1530 1531 1532 1533 1535 1536 1536 1536 1537 1537 1539 1540 1540 1540 1540 1539 1540 1541 1542 1542 1543 1544 1544 1544 1544 1545 1547 1548 1548 1548 1547 1547 1548 1548 1549 1549 1549 1549 1550 1550 1551 1552 1552 1553 1553 1554 1554 1555
1494 1495 1497 1499 1501 1502 1502 1504 1506 1508 1510 1510 1511 1513 1514 1516 1517 1517 1517 1517 1518 1519 1519 1520 1521 1522 1522 1523 1523 1523 1524 1524 1525 1526 1526 1528 1529 1530 1531 1532 1534 1535 1535 1534 1535 1536 1537 1539 1540 1540 1540 1540 1539 1539 1540 1541 1541 1542 1543 1544 1545 1544 1545 1546 1547 1548 1548 1547 1547 1548 1548 1548 1549 1549 1549 1550 1550 1551 1551 1552 1553 1553 1554 1554 1555
1493 1495 1496 1498 1500 1502 1502 1503 1506 1507 1509 1510 1512 1513 1514 1516 1517 1517 1517 1517 1517 1518 1519 1520 1520 1521 1521 1522 1522 1522 1523 1524 1524 1524 1525 1526 1528 1529 1529 1531 1533 1532 1532 1533 1533 1535 1536 1536 1538 1539 1539 1539 1539 1539 1539 1539 1540 1541 1541 1543 1545 1545 1545 1545 1546 1548 1549 1548 1547 1548 1548 1549 1549 1549 1549 1549 1550 1550 1551 1552 1552 1553 1553 1554 1554
1493 1494 1495 1497 1498 1500 1502 1504 1506 1507 1509 1510 1512 1513 1515 1516 1516 1516 1517 1516 1516 1517 1518 1519 1519 1519 1520 1521 1521 1522 1522 1523 1524 1525 1525 1525 1527 1528 1528 1529 1531 1531 1531 1532 1532 1532 1534 1535 1536 1537 1538 1539 1539 1539 1539 1539 1540 1541 1541 1543 1545 1546 1546 1546 1547 1548 1549 1549 1548 1548 1549 1549 1549 1549 1549 1549 1550 1550 1551 1551 1551 1552 1553 1553 1554
1492 1493 1495 1496 1498 1500 1502 1503 1505 1506 1508 1510 1511 1513 1514 1515 1516 1516 1516 1517 1516 1516 1517 1518 1518 1518 1519 1520 1521 1522 1523 1523 1524 1525 1525 1526 1526 1527 1528 1528 1530 1532 1532 1532 1531 1531 1532 1534 1535 1535 1536 1537 1537 1538 1539 1539 1540 1541 1542 1542 1543 1544 1545 1545 1547 1547 1549 1549 1548 1548 1548 1549 1549 1549 1549 1549 1549 1550 1550 1550 1551 1551 1552 1553 1553
1492 1493 1494 1496 1497 1499 1500 1502 1504 1505 1507 1509 1510 1512 1514 1514 1515 1516 1517 1518 1517 1517 1517 1517 1517 1518 1519 1520 1521 1522 1523 1523 1524 1525 1525 1525 1525 1526 1527 1528 1530 1532 1533 1532 1531 1531 1532 1533 1533 1534 1535 1535 1536 1537 1539 1540 1540 1540 1541 1541 1541 1541 1542 1543 1544 1545 1546 1548 1548 1548 1548 1548 1548 1549 1549 1549 1549 1549 1550 1550 1551 1551 1551 1552 1553
1491 1493 1493 1495 1496 1498 1500 1501 1503 1505 1506 1508 1510 1512 1513 1514 1515 1516 1517 1518 1519 1519 1519 1519 1519 1519 1520 1521 1522 1522 1523 1523 1524 1524 1525 1524 1525 1526 1527 1528 1529 1530 1531 1531 1531 1531 1531 1532 1533 1533 1534 1534 1535 1536 1538 1540 1539 1539 1540 1540 1541 1541 1541 1542 1541 1542 1543 1544 1546 1547 1548 1548 1547 1547 1548 1549 1549 1549 1549 1550 1550 1550 1551 1551 1552
1491 1492 1493 1494 1496 1497 1499 1500 1502 1504 1506 1507 1509 1511 1512 1514 1514 1516 1517 1518 1519 1519 1520 1520 1521 1521 1521 1521 1522 1523 1523 1524 1524 1524 1524 1524 1524 1525 1526 1527 1527 1527 1528 1529 1530 1531 1531 1532 1532 1532 1533 1533 1534 1535 1537 1538 1538 1538 1538 1539 1541 1542 1542 1542 1541 1541 1541 1542 1543 1545 1546 1547 1547 1547 1546 1547 1548 1549 1549 1549 1550 1550 1550 1551 1551
1491 1492 1493 1494 1495 1497 1498 1500 1502 1503 1505 1507 1508 1510 1511 1513 1514 1515 1517 1518 1519 1520 1520 1521 1521 1522 1522 1522 1522 1523 1523 1524 1524 1525 1524 1525 1525 1525 1525 1526 1525 1526 1527 1528 1528 1529 1530 1530 1531 1531 1532 1532 1533 1534 1535 1536 1536 1536 1535 1536 1539 1540 1540 1541 1541 1541 1541 1541 1542 1543 1544 1545 1547 1548 1547 1546 1547 1548 1548 1549 1549 1549 1550 1550 1551
1491 1492 1493 1494 1495 1496 1498 1499 1501 1503 1505 1506 1508 1509 1511 1513 1514 1516 1517 1518 1519 1519 1520 1520 1521 1521 1522 1522 1522 1522 1523 1523 1524 1524 1524 1525 1526 1525 1525 1525 1525 1526 1526 1527 1527 1528 1528 1529 1529 1530 1530 1531 1532 1533 1533 1534 1535 1535 1534 1535 1536 1538 1539 1540 1540 1540 1541 1541 1541 1541 1542 1543 1544 1546 1547 1547 1547 1547 1547 1548 1548 1549 1549 1550 1550
1492 1492 1493 1494 1495 1496 1497 1499 1501 1502 1504 1506 1508 1510 1511 1513 1514 1516 1517 1518 1518 1519 1519 1520 1520 1520 1520 1521 1521 1521 1522 1522 1523 1523 1524 1524 1525 1526 1525 1525 1525 1526 1526 1526 1526 1527 1527 1527 1527 1528 1528 1529 1529 1530 1531 1532 1532 1533 1533 1534 1535 1536 1537 1538 1539 1539 1539 1540 1540 1540 1541 1541 1542 1543 1544 1546 1547 1546 1546 1547 1548 1548 1548 1549 1550
1492 1492 1493 1494 1495 1496 1497 1499 1500 1502 1503 1505 1507 1509 1511 1512 1514 1515 1516 1517 1518 1518 1518 1519 1519 1519 1520 1520 1520 1521 1522 1522 1522 1523 1524 1524 1524 1525 1525 1525 1525 1525 1525 1525 1525 1525 1525 1525 1526 1526 1526 1527 1527 1528 1529 1530 1531 1531 1532 1533 1534 1535 1536 1537 1537 1537 1537 1538 1539 1540 1540 1540 1541 1542 1542 1544 1545 1546 1546 1546 1546 1547 1547 1548 1549
1492 1493 1493 1493 1494 1495 1496 1498 1500 1501 1503 1505 1506 1508 1510 1511 1513 1515 1515 1516 1517 1518 1518 1518 1519 1519 1519 1520 1520 1521 1522 1522 1523 1523 1524 1524 1524 1525 1525 1525 1525 1526 1525 1525 1525 1524 1524 1524 1524 1525 1525 1526 1526 1527 1527 1528 1529 1530 1531 1532 1533 1534 1534 1535 1536 1536 1537 1537 1537 1538 1539 1540 1541 1541 1542 1542 1543 1544 1545 1546 1546 1546 1547 1547 1548
1493 1492 1492 1493 1494 1494 1496 1497 1499 1501 1502 1504 1505 1507 1508 1510 1512 1513 1514 1515 1516 1517 1518 1518 1519 1519 1519 1519 1520 1521 1521 1522 1523 1523 1523 1524 1524 1525 1525 1524 1525 1525 1526 1525 1525 1524 1524 1524 1524 1524 1524 1525 1525 1526 1526 1527 1528 1529 1530 1532 1532 1533 1533 1534 1534 1535 1536 1536 1536 1537 1538 1539 1540 1540 1541 1541 1541 1542 1543 1544 1545 1546 1546 1547 1547
1493 1492 1491 1492 1493 1493 1495 1497 1498 1500 1502 1503 1505 1506 1508 1509 1510 1512 1513 1514 1516 1517 1518 1518 1519 1519 1519 1519 1520 1520 1521 1521 1522 1522 1522 1523 1523 1524 1524 1524 1524 1525 1525 1525 1525 1525 1524 1524 1524 1524 1524 1524 1524 1525 1526 1526 1527 1528 1529 1531 1531 1532 1532 1532 1533 1534 1535 1535 1535 1535 1536 1537 1538 1539 1539 1540 1541 1541 1542 1542 1544 1545 1546 1546 1546
1493 1491 1491 1491 1492 1493 1494 1496 1498 1499 1501 1502 1504 1506 1507 1509 1510 1511 1513 1514 1515 1516 1518 1518 1519 1519 1519 1519 1519 1520 1520 1521 1521 1521 1522 1522 1523 1523 1523 1524 1524 1524 1524 1524 1524 1524 1524 1524 1524 1524 1524 1525 1525 1525 1526 1527 1527 1528 1529 1530 1530 1531 1531 1532 1533 1534 1534 1534 1534 1534 1534 1535 1536 1537 1538 1538 1539 1540 1541 1541 1542 1543 1544 1545 1545
1493 1491 1490 1491 1492 1492 1493 1496 1497 1498 1500 1502 1504 1505 1506 1508 1510 1511 1512 1514 1515 1516 1517 1518 1518 1519 1519 1519 1519 1519 1520 1520 1521 1521 1521 1522 1522 1522 1523 1524 1524 1524 1524 1524 1524 1524 1524 1524 1524 1524 1525 1525 1525 1525 1526 1527 1527 1528 1529 1530 1530 1530 1531 1532 1533 1533 1533 1534 1534 1534 1534 1534 1534 1535 1536 1537 1538 1539 1540 1540 1541 1542 1543 1543 1544
1494 1490 1489 1490 1491 1491 1493 1495 1496 1497 1499 1501 1503 1505 1506 1507 1509 1511 1512 1514 1514 1515 1516 1517 1518 1518 1519 1519 1519 1519 1520 1520 1521 1521 1521 1521 1522 1522 1523 1524 1524 1525 1524 1524 1524 1524 1524 1524 1524 1525 1525 1525 1526 1526 1527 1527 1527 1528 1529 1530 1530 1531 1531 1532 1532 1532 1533 1533 1534 1534 1533 1533 1533 1533 1534 1535 1536 1537 1538 1539 1540 1541 1542 1542 1543
1493 1490 1488 1489 1490 1491 1492 1494 1495 1497 1498 1500 1502 1504 1505 1507 1508 1510 1512 1513 1514 1515 1516 1517 1518 1518 1519 1519 1520 1520 1520 1520 1521 1521 1522 1522 1522 1523 1523 1523 1524 1524 1524 1524 1524 1524 1524 1524 1524 1525 1525 1526 1526 1526 1527 1527 1527 1528 1529 1530 1530 1531 1531 1532 1532 1532 1533 1533 1533 1533 1533 1533 1533 1533 1533 1534 1534 1535 1536 1538 1539 1540 1540 1541 1542
1491 1489 1487 1487 1489 1489 1491 1493 1494 1496 1497 1500 1501 1503 1505 1506 1508 1510 1512 1512 1513 1514 1515 1516 1517 1518 1519 1519 1520 1520 1520 1521 1521 1521 1522 1522 1523 1523 1523 1524 1524 1524 1525 1525 1525 1525 1525 1525 1525 1525 1525 1526 1526 1526 1527 1527 1528 1528 1529 1530 1530 1531 1532 1532 1532 1533 1533 1533 1533 1532 1532 1532 1532 1532 1533 1533 1533 1534 1535 1536 1537 1537 1538 1539 1540
1487 1486 1486 1486 1487 1488 1490 1492 1493 1495 1496 1498 1500 1502 1504 1505 1507 1509 1511 1512 1512 1514 1515 1516 1517 1518 1518 1519 1520 1520 1521 1521 1522 1522 1522 1522 1523 1523 1524 1524 1524 1525 1525 1525 1525 1526 1526 1526 1526 1526 1526 1526 1527 1527 1527 1527 1528 1528 1529 1530 1530 1531 1531 1531 1532 1532 1533 1532 1532 1532 1532 1531 1531 1532 1532 1532 1532 1533 1534 1534 1535 1535 1536 1537 1537